Regional Weather Roundup
Issued by NWS Wakefield, VA

Home | Current Version | Previous Version | Graphics & Text | Print | Product List | Glossary On
Versions: 1 2 3 4 5 6 7 8 9 10 11 12 13 14 15 16 17 18 19 20 21 22 23 24 25 26 27 28
000
ASUS41 KAKQ 190010
RWRAKQ

REGIONAL WEATHER ROUNDUP
NATIONAL WEATHER SERVICE WAKEFIELD VA
800 PM EDT FRI APR 18 2014

Note: "fair" indicates few or no clouds below 12,000 feet with no
significant weather and/or obstructions to visibility. * = Denotes
station may not report precipitation (e.g., rain,snow,etc.),
thunder or fog.

VAZ042-051-052>054-056-190100-
NORTHERN VIRGINIA

CITY           SKY/WX    TMP DP  RH WIND       PRES   REMARKS
WASH NATIONAL  CLOUDY    52  34  50 SE6       30.31R
DULLES         CLOUDY    50  34  54 S8        30.29R
FORT BELVOIR   CLOUDY    51  35  55 SE6       30.32R
QUANTICO       CLOUDY    50  37  61 S9        30.32R
FREDERICKSBRG* CLOUDY    52  39  62 E3        30.31R
STAFFORD*      CLOUDY    50  38  64 SE5       30.36R
WARRENTON      CLOUDY    50  41  71 SE3       30.30R
CULPEPER*      CLOUDY    54  36  50 CALM      30.30R
MANASSAS*      CLOUDY    50  36  57 S3        30.30R
LEESBURG*      CLOUDY    54  37  54 S6        30.29R
WINCHESTER     CLOUDY    52  36  54 E5        30.26R
$$

VAZ048-049-060>072-079>083-190100-
CENTRAL AND SOUTH CENTRAL VIRGINIA...AND NORTH CENTRAL NORTH CAROLINA

CITY           SKY/WX    TMP DP  RH WIND       PRES   REMARKS
RICHMOND       CLOUDY    50  36  58 CALM      30.31R
CHESTERFIELD*  NOT AVBL
HANOVER        CLOUDY    49  38  65 E3        30.32R
TAPPAHANNOCK*  CLOUDY    49  35  60 CALM      30.31S
CHARLOTTSVILLE CLOUDY    51  39  63 S7        30.28S
ORANGE*        CLOUDY    52  36  54 CALM      30.31S
LOUISA*        CLOUDY    52  37  58 CALM      30.28S
FARMVILLE*     CLOUDY    52  39  62 CALM      30.27F
SOUTH HILL*    CLOUDY    54  39  58 CALM      30.33F
ROANOKE RAPIDS CLOUDY    55  45  67 NE3       30.28S
RALEIGH        CLOUDY    56  40  55 NE6       30.26S
$$

VAZ088>098-190100-
SOUTHEAST VIRGINIA

CITY           SKY/WX    TMP DP  RH WIND       PRES   REMARKS
NORFOLK        CLOUDY    46  40  79 NE8       30.31S
VIRGINIA BEACH CLOUDY    46  41  82 NE6       30.31S
NORFOLK NAVAL  CLOUDY    47  40  76 NE8       30.33F
WEST POINT*    CLOUDY    50  40  67 E5        30.32F
NEWPORT NEWS   CLOUDY    50  41  71 E5        30.32S
LANGLEY AFB    CLOUDY    47  43  86 E6        30.32F
FORT EUSTIS    CLOUDY    48  42  80 E5        30.30F
WILLIAMSBURG*    N/A     48  43  81 E5        30.32F
FRANKLIN*      CLOUDY    48  41  76 NE5       30.31S
WAKEFIELD      CLOUDY    49  40  71 CALM      30.30F
$$

VAZ020-022-025-037-045-190100-
WESTERN AND SOUTHWEST VIRGINIA

CITY           SKY/WX    TMP DP  RH WIND       PRES   REMARKS
STAUNTON*      CLOUDY    51  38  60 SW3       30.28S
HOT SPRINGS VA CLOUDY    45  36  70 S7        30.30F
LYNCHBURG      CLOUDY    54  41  61 CALM      30.29F
DANVILLE       CLOUDY    54  39  57 NE5       30.28F
MARTINSVILLE   CLOUDY    50  44  79 CALM      30.29F
ROANOKE        CLOUDY    50  39  66 SE7       30.29F
BLACKSBURG     CLOUDY    52  43  71 E5        30.28F
DUBLIN*        CLOUDY    52  38  59 CALM      30.26F
MARION*        CLOUDY    52  37  55 CALM      30.28S
HILLSVILLE*    CLOUDY    52  36  54 CALM      30.29F
RICHLANDS*     CLOUDY    60  34  37 SE5       30.23F
WISE*          CLOUDY    59  32  36 CALM      30.23F
ABINGDON*      CLOUDY    59  33  37 NE3       30.23F
$$

MDZ021>025-VAZ099-100-190100-
SOUTHERN MARYLAND AND THE DELMARVA PENINSULA

CITY           SKY/WX    TMP DP  RH WIND       PRES   REMARKS
PATUXENT RIVER CLOUDY    48  38  68 CALM      30.31R
BAY BRIDGE APT CLOUDY    48  36  61 CALM      30.31R
LEONARDTOWN    CLOUDY    46  37  71 CALM      30.32R
DOVER          CLOUDY    45  41  86 SE12      30.27F
GEORGETOWN     CLOUDY    45  37  73 E6        30.32F
EASTON         CLOUDY    50  41  71 CALM      30.33F
CAMBRIDGE      CLOUDY    52  41  66 CALM      30.30S
SALISBURY      CLOUDY    47  38  71 E6        30.32S
OCEAN CITY     CLOUDY    44  38  79 NE5       30.34S
WALLOPS ISLAND CLOUDY    46  41  82 E7        30.34R
ACCOMACK*      CLOUDY    43  37  81 E5        30.33R
$$

NCZ012>017-030>032-190100-
EASTERN NORTH CAROLINA

CITY           SKY/WX    TMP DP  RH WIND       PRES   REMARKS
ELIZABETH CITY CLOUDY    48  41  76 N9        30.31S
AHOSKIE*       CLOUDY    52  41  66 NE5       30.29F
EDENTON*       CLOUDY    49  42  78 NE7       30.29F
CURRITUCK*     CLOUDY    48  41  78 N8        30.32S
KILL DEVIL HLS CLOUDY    46  44  91 NE7       30.28R
MANTEO         CLOUDY    46  44  90 NE14G20   30.30R
CAPE HATTERAS  CLOUDY    51  49  92 NE10G23   30.25S
GOLDSBORO      CLOUDY    60  48  64 N3        30.22S
WASHINGTON     CLOUDY    54  46  75 NE7       30.27F
GREENVILLE     CLOUDY    59  45  58 E8        30.26F
NEW BERN       CLOUDY    59  47  64 NE10      30.26R
WILMINGTON     RAIN      58  54  86 NE9       30.19F FOG
$$

VAZ048-190100-
ELSEWHERE

CITY           SKY/WX    TMP DP  RH WIND       PRES   REMARKS
HARRISBURG PA  CLOUDY    51  40  65 SE3       30.27S
BALTIMORE      CLOUDY    49  30  48 CALM      30.29S
ANNAPOLIS      CLOUDY    50  37  61 SE3       30.30S
ANDREWS AFB    CLOUDY    48  34  58 S5        30.30R
WILMINGTON DE  CLOUDY    49  39  68 S9        30.30F
PHILADELPHIA   CLOUDY    53  30  41 CALM      30.30F
WILDWOOD NJ*   CLOUDY    43  34  70 SE6       30.34S
ATLANTIC CITY  MOCLDY    40  35  83 E5        30.33F
HENDERSON NC   CLOUDY    53  39  60 CALM      30.27S
GREENSBORO     CLOUDY    55  38  52 N6        30.25S
ROCKY MOUNT    CLOUDY    56  44  64 NE6       30.26F
FAYETTEVILLE   CLOUDY    61  45  55 NE8       30.21S
CHARLOTTE      RAIN      49  47  93 N9        30.26S FOG
$$

VAZ100-190100-
MARINE

STATION/POSITION TIME  TEMP    WIND        PRES    WAVE   SWELL
                       AIR SEA DIR/SP/G            HT/PER HT/PER
                 (UTC) (F)     (DEG/KT/KT) (MB)    (FT/S) (FT/S)
44066 TX TWR #4  0000   41 44   40/  8/ 12 1026.4F   8/11   7/11
CAPE MAY NJ      0000   42 53  110/  4/  6 1027.0F
LEWES DE         0000   43 50  120/  4/  4 1026.8F
15NM E FENWICK I 0000   43 45              1027.1R   6/10
OCEAN-CITY-INLET 0000   44 48   80/  2/  4 1026.8S
WACHAPREAGUE VA  0000   44 55   50/  8/ 12 1026.6F
THOMAS POINT MD  0000   49 52  140/  3/  4 1026.6F
GOOSES REEF MD   0000   49      80/  4/  4 1026.9R
COVE POINT MD    0000   49      50/  4/  5 1026.1R
SOLOMONS ISLAND  0000      52                N/A
BISHOPS HEAD MD  0000   49 55  180/  4/  5 1025.8F
PINEY POINT MD   0000          170/  4/  5   N/A
POTOMAC MD       0000   48     150/  6/  8 1025.5S
CAMBRIDGE MD     0000   49 55  340/  3/  4 1025.6R
LEWISETTA VA     0000   49 53  160/  4/  6 1026.2R
RAPPAHANNOCK LGT 0000          100/  8/  9 1027.3R
STINGRAY PT      0000   47      90/  2/  4 1026.8S
YORK RVR RNG VA  0000   47     100/  6/  8 1026.0R
YORKTOWN VA      0000   48 55   90/  7/  8 1026.4F
JAMESTOWN VA     0000   48     100/  4/  8   N/A
DOMINION TERM VA 0000   47     100/  5/  7 1026.7F
KIPTOPEKE VA     0000      53   60/  5/  9   N/A
CHES BAY BRIDGE  0000   46 52   40/ 12/ 16 1026.1F
CAPE HENRY VA    0000   45      30/ 11/ 13   N/A
CHESAPEAKE LGHT  2300   45      30/ 15/ 15 1026.7F
WILLOUBY STN VA  0000   46      80/ 10/ 11 1025.5F
S CRANEY ISL VA  0000           20/  8/ 10 1026.5F
CAPE HENRY BUOY  0000      47                N/A     6/11   2/11
1ST LANDING BUOY 0000      46                N/A     5/11   5/11
64NM E OF VA BCH 0000   47 49   10/ 16/ 17 1025.1R   7/10   5/10
DUCK PIER NC     0000   46 51   10/ 14/ 17 1025.5R
44100 DUCK FRF   0000      48                N/A     7/11   3/11
44056 DUCK FRF   0000      49                N/A     6/ 9   2/12
OREGON INLET NC  0000   47 52  360/ 12/ 16 1025.4F
HATTERAS NC      0000   51 56   30/ 12/ 19 1024.2F
CAPE LOOKOUT NC  2300   55      30/ 22/ 24 1023.2F
FRYING PAN SHLS  0000   60 64   60/ 23/ 29 1020.0R   9/ 7   3/10
$$



USA.gov is the U.S. government's official web portal to all federal, state and local government web resources and services.